Dewpoint
-6 -4 -0 2 3 3 3 3 2 -2 -9 -10 -7 -7 -11 -14 -15 -13 -12 -11 -10 -9 -8 -8 -9 -10 -10 -11 -10 -11 -10 -10 -9 -9 -10 -9 -10 -12 -13 -14 -16 -17 -19
-6 -4 0 2 2 2 2 2 1 -3 -9 -11 -9 -7 -9 -12 -14 -14 -13 -11 -10 -9 -8 -8 -8 -8 -9 -9 -9 -10 -10 -10 -8 -8 -7 -7 -8 -9 -9 -11 -12 -15 -18
-6 -5 -0 1 1 2 2 2 0 -3 -9 -11 -8 -6 -7 -9 -12 -13 -13 -12 -11 -9 -8 -8 -7 -7 -7 -8 -8 -8 -9 -10 -10 -9 -9 -7 -8 -7 -9 -9 -11 -13 -14
-6 -5 -1 1 1 1 1 1 -0 -2 -8 -10 -8 -8 -8 -8 -10 -12 -13 -13 -11 -10 -9 -8 -7 -7 -7 -7 -7 -7 -8 -8 -9 -9 -9 -8 -8 -8 -8 -8 -11 -12 -13
-6 -6 -4 -2 -1 -0 0 0 -1 -2 -7 -9 -9 -9 -7 -7 -8 -10 -11 -12 -12 -11 -10 -9 -9 -8 -7 -7 -7 -7 -7 -7 -8 -9 -9 -8 -7 -8 -9 -9 -11 -14 -13
-6 -7 -7 -5 -3 -1 -1 -1 -2 -3 -7 -8 -8 -8 -8 -6 -6 -8 -10 -11 -12 -12 -11 -11 -10 -10 -9 -8 -8 -8 -7 -7 -8 -8 -8 -7 -7 -7 -8 -9 -11 -13 -13
-7 -7 -6 -4 -3 -3 -2 -2 -2 -4 -7 -7 -7 -7 -6 -5 -5 -6 -8 -10 -11 -11 -11 -11 -11 -10 -10 -9 -9 -8 -8 -8 -8 -8 -7 -7 -7 -8 -9 -10 -12 -13 -14
-6 -6 -6 -6 -6 -6 -5 -4 -3 -4 -5 -6 -6 -7 -5 -4 -4 -5 -7 -8 -9 -10 -10 -10 -10 -11 -10 -10 -9 -8 -8 -8 -7 -7 -7 -7 -9 -10 -11 -11 -12 -14 -14
-4 -5 -5 -6 -6 -6 -5 -5 -4 -5 -5 -5 -5 -5 -4 -4 -5 -5 -5 -5 -6 -8 -9 -9 -10 -10 -10 -10 -8 -7 -8 -7 -6 -7 -8 -9 -11 -12 -15 -17 -19 -19 -19
-4 -4 -4 -4 -4 -4 -5 -5 -5 -5 -5 -4 -4 -4 -4 -4 -4 -2 -2 -4 -5 -7 -8 -8 -9 -10 -10 -8 -7 -7 -7 -6 -7 -9 -12 -15 -17 -18 -19 -20 -21 -21 -21
-6 -4 -3 -3 -3 -3 -3 -3 -3 -3 -3 -3 -3 -3 -4 -2 -2 -1 -2 -3 -5 -5 -7 -8 -9 -10 -8 -7 -7 -6 -6 -8 -12 -15 -16 -17 -19 -20 -21 -22 -23 -23 -22
-4 -5 -5 -3 -2 -2 -2 -2 -1 -1 -1 -2 -2 -2 -2 -1 -1 -1 -2 -3 -3 -5 -6 -8 -9 -7 -7 -7 -6 -7 -11 -15 -16 -17 -18 -20 -21 -23 -23 -23 -22 -22 -23
-2 -3 -4 -3 -2 -2 -2 -1 -1 -1 -1 -1 -1 -1 -1 -1 -1 -2 -2 -2 -3 -4 -6 -8 -6 -7 -5 -6 -10 -14 -15 -16 -17 -19 -21 -23 -23 -23 -23 -23 -23 -23 -23
-4 -1 -2 -3 -2 -2 -1 -1 -1 -1 -1 -1 -1 -1 -1 -1 -1 -2 -2 -2 -3 -5 -6 -6 -5 -3 -4 -8 -14 -15 -17 -19 -21 -22 -23 -23 -23 -23 -23 -22 -21 -20 -19
-4 -4 -4 -2 -2 -2 -1 -1 -1 -2 -2 -2 -2 -2 -2 -2 -2 -3 -3 -3 -5 -6 -6 -5 -4 -6 -8 -10 -13 -18 -20 -21 -22 -22 -23 -22 -22 -22 -22 -21 -19 -19 -17
-6 -6 -7 -4 -3 -3 -3 -2 -2 -2 -2 -2 -2 -2 -3 -3 -3 -3 -3 -4 -5 -6 -4 -4 -4 -6 -8 -12 -17 -20 -21 -21 -22 -22 -21 -21 -20 -20 -19 -19 -19 -18 -17
-10 -12 -11 -11 -9 -3 -2 -2 -3 -2 -2 -2 -2 -2 -3 -3 -3 -3 -4 -4 -4 -5 -5 -5 -6 -9 -17 -19 -19 -20 -21 -21 -21 -20 -19 -18 -18 -18 -18 -17 -17 -17 -16
-10 -12 -11 -8 -9 -5 -4 -3 -2 -2 -3 -3 -3 -3 -4 -4 -4 -5 -5 -5 -5 -5 -6 -7 -8 -9 -16 -18 -19 -20 -20 -20 -20 -20 -19 -18 -18 -18 -17 -17 -16 -15 -14
-7 -7 -7 -6 -5 -5 -4 -4 -4 -4 -4 -4 -4 -5 -5 -5 -5 -5 -5 -5 -5 -6 -7 -9 -15 -17 -18 -18 -18 -19 -19 -19 -19 -19 -19 -18 -17 -16 -16 -14 -12 -12 -12
-7 -10 -11 -7 -5 -5 -4 -5 -5 -5 -5 -5 -5 -6 -6 -6 -6 -6 -6 -7 -11 -14 -15 -16 -16 -16 -17 -17 -18 -18 -19 -18 -19 -19 -18 -17 -16 -16 -13 -10 -10 -10 -11
-6 -5 -5 -10 -5 -5 -5 -5 -5 -5 -6 -6 -6 -6 -6 -6 -6 -7 -12 -14 -14 -14 -15 -15 -16 -16 -17 -17 -17 -17 -18 -18 -18 -18 -18 -17 -16 -16 -15 -11 -10 -10 -11
-7 -6 -5 -5 -7 -5 -5 -5 -6 -6 -6 -6 -6 -6 -6 -7 -7 -8 -12 -13 -14 -14 -15 -15 -15 -16 -16 -17 -17 -17 -13 -15 -16 -17 -16 -15 -15 -15 -14 -11 -11 -10 -10
-8 -7 -7 -6 -6 -6 -6 -6 -6 -6 -6 -6 -7 -6 -7 -7 -8 -10 -13 -13 -14 -14 -15 -15 -15 -16 -16 -17 -17 -17 -14 -10 -11 -12 -12 -14 -12 -11 -11 -10 -11 -12 -11
-7 -7 -6 -7 -7 -6 -6 -6 -6 -6 -7 -7 -7 -7 -7 -9 -10 -12 -13 -13 -14 -14 -14 -15 -15 -16 -16 -17 -17 -16 -11 -10 -10 -11 -13 -13 -13 -12 -11 -11 -12 -14 -14
-8 -7 -6 -7 -6 -6 -6 -7 -7 -7 -7 -7 -8 -9 -10 -11 -11 -12 -13 -13 -14 -14 -15 -15 -16 -16 -17 -17 -16 -16 -15 -14 -13 -12 -12 -12 -12 -13 -13 -14 -14 -14 -13
-9 -9 -9 -9 -9 -8 -9 -8 -8 -8 -8 -9 -8 -9 -10 -11 -12 -13 -13 -14 -14 -15 -15 -15 -16 -17 -17 -17 -16 -13 -12 -12 -11 -10 -11 -10 -11 -12 -14 -16 -18 -17 -15
Wind_Speed
22 24 26 28 30 30 28 25 23 24 24 23 21 19 18 17 17 16 15 15 15 14 14 14 15 15 14 15 15 14 14 15 13 12 15 15 13 12 14 14 14 13 14
21 26 31 30 31 30 29 26 24 25 25 22 19 17 17 17 16 17 17 16 15 15 15 14 14 14 13 13 13 10 11 11 8 7 7 6 7 9 10 11 11 12 11
24 26 32 32 31 30 29 26 24 24 24 22 20 20 19 19 20 20 19 18 17 16 15 15 14 14 13 12 12 10 8 7 7 5 3 4 3 5 6 8 9 10 9
23 24 30 32 30 28 25 24 23 23 24 24 23 24 23 23 21 19 20 19 18 17 16 16 15 14 13 12 11 10 7 6 4 5 4 3 4 5 5 3 6 7 7
22 22 24 26 26 23 23 22 22 23 25 25 24 23 22 20 18 19 20 20 20 19 18 17 16 15 13 12 11 9 7 6 3 2 3 3 3 4 5 6 4 3 5
19 18 19 22 22 22 22 22 23 23 25 25 24 24 22 21 21 21 22 21 21 21 20 19 17 16 15 13 11 10 8 6 4 3 2 2 2 3 4 6 6 4 3
16 17 19 21 22 22 23 22 23 24 25 25 25 24 23 22 22 22 22 23 23 22 21 20 19 17 16 15 13 11 9 7 5 4 3 3 3 4 4 4 4 3 2
7 14 15 17 17 18 20 22 23 23 24 25 25 25 24 23 23 22 22 22 22 22 22 21 19 18 17 15 14 12 10 8 6 5 5 4 3 3 2 1 1 0 1
5 7 11 15 17 17 17 20 21 21 23 24 25 25 26 27 26 23 21 21 22 23 23 22 20 19 18 16 14 12 11 9 8 7 6 5 4 3 3 2 3 3 2
3 4 6 8 11 15 18 20 21 21 22 24 25 27 27 27 25 24 23 23 23 25 25 24 22 20 18 16 14 13 11 10 9 9 7 7 6 5 5 5 6 6 7
1 3 6 8 8 11 16 19 22 22 24 25 26 27 27 26 25 25 25 25 24 24 24 23 22 20 18 16 15 13 13 12 11 10 9 8 7 7 7 7 8 9 11
3 5 8 11 13 14 14 16 18 21 23 24 26 27 27 28 28 28 28 27 25 24 22 22 21 20 18 16 15 14 13 12 12 11 10 10 9 8 8 9 11 12 14
7 6 7 8 12 15 16 17 18 20 22 23 24 25 27 29 29 28 28 26 24 24 25 24 21 18 16 16 16 15 14 13 13 12 11 10 10 10 10 11 13 14 15
4 6 7 8 11 14 16 18 20 21 22 22 23 25 26 27 28 28 29 28 27 27 25 23 21 21 21 18 16 14 14 14 13 13 12 11 11 11 12 12 12 13 13
3 3 4 7 10 14 16 17 19 20 21 22 23 26 27 29 29 30 29 29 28 28 27 27 25 21 17 16 16 16 15 14 14 13 13 12 12 12 12 11 11 10 10
3 6 7 8 9 15 19 21 23 24 25 23 25 27 28 30 30 31 31 31 31 32 31 27 22 16 15 16 15 15 15 14 14 13 12 11 11 11 11 10 10 10 10
8 9 11 13 15 15 19 23 24 24 27 27 26 29 31 32 32 32 31 31 29 26 23 20 15 14 17 16 15 14 14 13 12 12 12 11 11 10 10 9 10 10 10
8 13 16 17 17 18 19 21 24 28 30 28 27 27 28 28 28 27 26 25 24 22 18 14 14 18 19 18 16 14 13 13 12 12 12 12 11 10 10 10 9 8 9
15 18 18 17 19 18 17 19 23 27 27 27 26 27 27 26 26 26 24 22 18 14 13 17 20 18 17 16 14 14 13 13 13 12 12 12 11 9 8 9 7 8 9
20 22 20 16 19 19 18 19 23 25 26 25 25 24 24 24 22 20 18 15 16 17 19 18 18 17 16 15 15 14 13 13 12 12 11 11 11 9 7 7 10 12 12
20 22 24 22 19 22 20 21 22 24 22 22 22 23 22 20 18 15 17 17 18 18 18 18 17 17 16 15 15 15 14 13 12 12 12 12 11 11 11 10 10 12 11
22 21 25 26 22 22 22 24 24 22 23 23 23 23 21 18 17 16 18 18 18 18 18 18 18 17 16 16 16 16 15 13 12 12 11 10 9 7 5 5 9 10 13
25 21 23 26 24 23 25 28 27 26 26 25 24 21 18 17 17 20 20 19 19 19 19 19 18 17 16 17 16 15 14 12 11 10 8 6 5 7 11 12 14 14 15
23 21 22 25 27 27 26 29 30 29 27 24 20 18 17 18 20 21 20 20 20 19 19 19 18 17 17 17 16 16 15 15 14 13 9 9 9 9 12 14 15 15 14
20 18 19 25 28 27 26 29 30 29 26 20 17 18 19 20 21 21 20 20 19 19 19 18 18 18 19 18 17 17 17 16 14 11 11 11 13 14 14 14 14 14 14
18 17 16 17 19 21 22 26 26 26 23 20 20 20 21 21 21 20 20 19 18 19 19 19 19 18 17 16 17 16 14 12 9 13 14 16 18 18 16 16 14 14 15
Wind_Direction
218 209 205 207 207 210 213 216 215 209 206 200 198 195 191 187 186 184 182 178 174 167 161 155 145 137 133 128 129 128 127 124 121 114 105 96 87 80 72 65 62 62 61
206 204 204 206 207 209 212 217 216 212 208 207 205 204 197 191 194 190 188 185 183 177 170 165 160 151 148 136 129 126 131 136 141 146 129 112 92 91 82 68 59 57 58
201 197 200 205 207 211 214 217 214 213 210 205 203 200 201 200 196 196 195 191 189 186 180 176 172 166 160 154 147 142 136 129 128 159 174 162 166 138 101 74 60 56 54
202 199 199 203 210 216 219 218 216 214 212 208 208 212 211 206 206 203 199 197 193 193 190 188 184 180 174 174 170 165 164 148 139 134 138 155 170 177 174 105 60 57 57
202 201 205 209 212 217 219 219 219 219 216 213 216 217 218 220 215 206 206 203 200 197 197 195 194 192 190 189 188 186 183 176 182 165 160 151 149 162 163 150 127 80 73
194 204 208 210 213 213 217 219 220 221 218 217 219 220 220 217 215 214 211 209 206 203 201 201 200 201 202 202 202 200 199 202 204 202 191 191 187 157 148 144 138 126 112
200 202 202 206 211 213 216 220 222 222 217 219 222 222 222 223 225 223 219 215 213 210 208 206 206 205 205 206 206 207 210 216 221 219 215 199 174 158 138 131 133 143 174
172 198 205 210 217 221 224 224 224 224 222 221 223 222 222 226 230 229 225 222 221 218 214 211 209 209 208 208 209 211 216 221 224 222 213 199 186 181 181 173 145 185 230
135 177 203 213 217 222 228 231 231 231 229 229 227 224 224 227 227 224 223 223 220 219 217 215 214 212 211 210 212 217 219 220 222 220 209 205 209 217 238 266 296 315 301
119 192 214 226 227 227 227 227 232 237 236 233 230 229 230 227 225 224 224 224 221 218 218 215 213 213 211 212 215 220 224 224 218 214 216 219 227 239 255 275 285 292 292
99 212 226 233 236 239 237 237 236 234 232 233 233 232 228 225 222 224 232 229 222 221 218 214 210 210 211 212 216 220 221 219 218 218 221 229 234 247 262 273 285 293 298
238 248 248 238 235 237 239 240 237 232 233 236 233 231 228 225 225 228 227 223 221 216 216 211 206 206 210 214 217 219 219 223 226 227 230 235 243 252 263 277 288 293 297
251 245 250 252 248 242 243 243 239 238 238 237 237 233 230 229 228 225 221 218 218 217 212 210 209 207 216 222 221 220 222 226 230 233 238 244 253 264 274 281 286 289 291
314 261 255 249 238 236 240 238 235 236 239 241 238 234 230 224 219 215 213 214 215 212 207 205 206 216 217 217 221 229 232 232 235 239 245 250 255 262 271 277 281 284 286
308 300 296 269 263 249 246 251 246 247 245 244 241 237 231 222 216 213 211 212 208 204 201 206 207 205 212 219 223 225 231 235 238 242 246 253 261 269 271 273 279 284 291
347 342 325 283 258 251 252 246 248 248 244 246 240 231 224 220 218 216 214 208 207 209 216 216 208 200 217 225 227 229 232 238 241 245 250 255 263 268 274 279 285 290 296
325 329 324 311 298 262 249 249 248 254 241 237 241 234 230 225 222 222 216 214 215 217 209 197 188 209 222 226 229 231 235 240 243 245 246 249 254 262 265 267 273 280 285
320 320 311 303 299 280 255 250 244 239 233 230 232 229 228 226 221 217 216 214 207 196 187 190 205 218 226 230 231 236 238 240 243 245 247 248 250 255 263 267 271 278 283
303 303 300 295 290 281 266 249 247 241 236 236 236 232 225 217 211 208 203 198 190 188 201 216 223 223 224 231 234 236 237 238 240 243 247 249 249 250 254 266 279 290 294
307 306 303 289 281 282 268 247 244 241 239 237 230 220 211 206 200 194 194 199 208 215 222 223 225 227 226 228 235 237 235 240 241 239 240 246 254 256 257 270 277 285 296
308 307 303 305 278 273 267 248 242 238 233 221 212 206 203 201 199 203 216 219 221 221 224 227 229 231 230 229 232 239 238 235 236 239 243 247 251 256 261 264 265 275 303
300 294 291 292 291 270 260 246 240 230 220 212 209 207 206 207 214 224 229 225 225 227 228 229 230 231 232 231 230 231 236 237 235 238 242 249 252 250 247 265 264 269 273
301 298 289 282 281 277 256 246 238 225 217 215 216 214 216 221 227 233 232 230 230 231 231 231 232 233 232 231 229 226 222 228 245 248 250 245 237 251 253 257 263 268 271
306 297 289 284 281 281 264 246 237 224 220 219 220 224 228 233 235 234 232 232 233 233 234 235 235 232 230 229 225 220 207 212 217 242 241 250 249 250 260 266 270 274 275
318 308 297 291 286 280 260 239 231 226 221 218 223 228 231 234 235 235 234 236 236 238 239 240 238 234 230 228 225 221 218 219 222 225 241 247 262 270 271 273 276 275 269
331 326 314 298 288 276 248 228 222 219 219 219 224 230 235 236 238 238 239 238 238 238 238 235 234 230 230 222 219 216 207 206 236 248 254 259 269 274 281 283 279 275 272
Height
1504 1507 1511 1515 1519 1523 1526 1529 1532 1534 1536 1538 1541 1544 1546 1548 1550 1552 1554 1556 1557 1558 1560 1561 1563 1564 1565 1566 1567 1567 1567 1567 1568 1568 1569 1569 1569 1570 1569 1569 1569 1568 1567
1501 1504 1508 1512 1516 1520 1524 1527 1530 1532 1534 1538 1541 1544 1546 1548 1550 1551 1553 1555 1557 1558 1560 1562 1563 1564 1566 1566 1567 1568 1568 1568 1568 1569 1569 1570 1573 1572 1571 1571 1570 1569 1568
1498 1502 1505 1509 1514 1517 1521 1524 1527 1530 1533 1536 1539 1542 1544 1546 1547 1549 1552 1553 1556 1558 1559 1561 1563 1564 1565 1567 1567 1568 1569 1568 1568 1568 1569 1569 1570 1572 1573 1572 1571 1571 1569
1498 1501 1504 1508 1512 1517 1520 1523 1526 1528 1532 1534 1537 1539 1540 1542 1545 1548 1550 1552 1554 1556 1558 1560 1562 1563 1565 1566 1567 1568 1568 1568 1568 1568 1568 1568 1568 1569 1572 1572 1572 1571 1570
1498 1501 1504 1508 1512 1516 1519 1522 1525 1528 1530 1533 1535 1537 1540 1543 1545 1547 1548 1550 1552 1554 1556 1558 1560 1561 1563 1564 1565 1566 1566 1567 1567 1567 1567 1567 1567 1568 1569 1570 1571 1571 1570
1499 1502 1505 1508 1511 1514 1517 1520 1523 1526 1529 1531 1534 1536 1538 1540 1542 1543 1546 1548 1550 1551 1553 1555 1557 1559 1560 1562 1563 1564 1565 1565 1565 1565 1565 1566 1566 1566 1567 1569 1570 1570 1570
1500 1502 1505 1508 1510 1513 1515 1518 1520 1522 1525 1528 1531 1533 1536 1538 1540 1541 1543 1545 1547 1549 1551 1553 1554 1556 1558 1559 1560 1561 1562 1563 1563 1563 1564 1564 1564 1565 1566 1567 1569 1569 1569
1500 1502 1504 1506 1509 1512 1514 1517 1519 1521 1523 1525 1527 1530 1532 1535 1537 1539 1541 1542 1545 1547 1548 1550 1552 1553 1555 1557 1558 1558 1559 1560 1561 1561 1562 1562 1563 1564 1564 1565 1566 1567 1568
1502 1504 1505 1507 1508 1510 1512 1514 1517 1519 1521 1523 1525 1527 1529 1530 1533 1536 1538 1540 1542 1544 1545 1547 1550 1551 1552 1554 1556 1557 1558 1558 1559 1560 1560 1561 1561 1562 1563 1563 1564 1564 1565
1504 1505 1506 1507 1508 1510 1511 1512 1514 1516 1518 1520 1522 1524 1526 1528 1531 1534 1535 1537 1539 1541 1543 1544 1546 1548 1550 1552 1554 1555 1556 1557 1557 1557 1558 1559 1560 1560 1561 1561 1561 1562 1563
1505 1506 1506 1506 1507 1508 1509 1510 1511 1512 1514 1516 1518 1520 1521 1524 1527 1530 1533 1534 1536 1539 1541 1542 1543 1546 1548 1548 1551 1553 1554 1555 1555 1556 1556 1557 1558 1559 1559 1559 1559 1559 1559
1505 1505 1505 1504 1504 1505 1506 1507 1508 1509 1511 1512 1514 1516 1518 1520 1522 1524 1528 1531 1533 1535 1539 1541 1541 1543 1546 1547 1548 1550 1552 1553 1553 1554 1555 1555 1556 1556 1557 1557 1557 1556 1556
1504 1504 1503 1503 1503 1503 1504 1504 1505 1506 1508 1509 1511 1512 1514 1516 1518 1521 1524 1526 1530 1532 1534 1537 1539 1541 1543 1546 1547 1548 1549 1550 1551 1551 1552 1552 1552 1552 1553 1553 1553 1553 1552
1503 1502 1502 1502 1501 1501 1502 1502 1503 1504 1505 1507 1508 1510 1511 1513 1515 1517 1520 1522 1525 1529 1530 1533 1534 1537 1538 1542 1544 1545 1546 1547 1547 1548 1549 1549 1549 1549 1550 1550 1550 1550 1550
1502 1502 1501 1500 1500 1501 1501 1501 1502 1502 1503 1505 1505 1507 1508 1511 1513 1515 1516 1519 1522 1524 1526 1527 1528 1532 1536 1538 1539 1541 1542 1543 1544 1545 1545 1546 1546 1545 1546 1546 1547 1547 1547
1500 1499 1499 1498 1497 1498 1498 1498 1498 1499 1499 1500 1502 1503 1504 1506 1508 1509 1511 1514 1517 1519 1521 1523 1525 1527 1533 1535 1534 1536 1537 1540 1540 1541 1542 1542 1542 1543 1543 1543 1543 1545 1544
1499 1498 1497 1495 1493 1493 1493 1493 1494 1494 1495 1496 1497 1499 1500 1501 1503 1505 1507 1509 1512 1515 1517 1519 1521 1525 1528 1530 1531 1532 1533 1535 1537 1537 1538 1539 1539 1539 1540 1540 1540 1542 1543
1497 1496 1494 1492 1490 1489 1488 1488 1489 1489 1490 1491 1493 1494 1496 1497 1499 1501 1503 1506 1508 1510 1512 1515 1518 1522 1524 1525 1526 1528 1530 1532 1533 1534 1535 1536 1536 1537 1538 1538 1538 1538 1540
1494 1492 1490 1488 1485 1484 1483 1484 1484 1485 1486 1487 1488 1490 1492 1493 1495 1498 1500 1502 1504 1506 1510 1514 1516 1518 1519 1520 1522 1523 1526 1528 1529 1530 1531 1533 1533 1534 1534 1536 1534 1535 1536
1490 1487 1485 1483 1481 1480 1479 1479 1480 1480 1481 1482 1484 1486 1489 1491 1493 1495 1498 1500 1502 1504 1508 1510 1513 1514 1515 1516 1517 1519 1522 1525 1526 1526 1527 1529 1530 1530 1531 1532 1532 1532 1533
1484 1483 1481 1477 1477 1476 1475 1474 1475 1475 1477 1479 1481 1484 1487 1489 1491 1493 1495 1497 1500 1501 1504 1506 1508 1510 1511 1512 1514 1516 1518 1520 1522 1523 1524 1525 1525 1526 1527 1529 1529 1529 1530
1478 1477 1474 1472 1471 1470 1470 1469 1470 1472 1474 1477 1479 1481 1483 1485 1487 1490 1492 1493 1496 1498 1500 1502 1504 1505 1506 1508 1510 1511 1514 1516 1517 1519 1520 1521 1521 1522 1524 1525 1526 1527 1527
1472 1470 1468 1466 1465 1463 1464 1464 1465 1468 1470 1472 1475 1477 1479 1481 1484 1486 1488 1490 1492 1494 1495 1497 1499 1500 1502 1503 1505 1507 1509 1512 1513 1515 1516 1517 1518 1520 1520 1521 1522 1522 1521
1466 1464 1462 1460 1458 1458 1457 1459 1461 1464 1466 1468 1471 1473 1475 1478 1481 1482 1484 1485 1487 1489 1490 1492 1494 1495 1497 1499 1500 1502 1505 1508 1510 1510 1513 1514 1516 1517 1517 1517 1517 1517 1517
1461 1458 1455 1453 1452 1451 1452 1454 1456 1459 1461 1464 1466 1469 1472 1474 1476 1477 1479 1480 1482 1484 1485 1487 1489 1490 1492 1494 1496 1498 1500 1503 1506 1508 1509 1510 1511 1512 1512 1512 1512 1511 1511
1457 1453 1450 1447 1446 1447 1449 1450 1452 1454 1457 1459 1462 1464 1467 1469 1470 1472 1474 1475 1476 1479 1480 1482 1484 1486 1488 1490 1492 1495 1497 1500 1502 1503 1503 1505 1506 1506 1506 1506 1506 1506 1506